Location: Melizzano
(41.1500°N, 14.5000°E)
Time: 21:28:53
(UTC+00:00)

Cosmos 2228 Rocket - Pass Details

Date: 11 May 2021
Orbit: 618 x 652 km, 82.5° (Epoch: 24 June)

Event Time Altitude Azimuth Distance (km) Brightness Sun altitude
Exits shadow 20:08:08 27° 86° (E) 1,212 4.2 -18.8°
Drops below altitude 10° 20:11:45 10° 32° (NNE) 2,016 5.9 -19.3°
Sets 20:14:16 0° 20° (NNE) 2,934 6.9 -19.6°
